Regional Weather Roundup
Issued by NWS

Home | Current Version | Previous Version | Text Only | Print | Product List | Glossary Off
Versions: 1 2 3 4 5 6 7 8 9 10 11 12 13 14 15 16 17 18 19 20 21 22 23 24 25 26 27 28 29 30 31 32 33 34 35 36 37 38 39 40 41 42 43 44 45 46 47 48 49 50

000
ASUS43 KBIS 272020
RWRND

NORTH DAKOTA REGIONAL WEATHER ROUNDUP
NATIONAL WEATHER SERVICE BISMARCK ND
200 PM CST SAT DEC 27 2014

NOTE: "FAIR" INDICATES FEW OR NO CLOUDS BELOW 12,000 FEET WITH NO
SIGNIFICANT WEATHER AND/OR OBSTRUCTIONS TO VISIBILITY.


NDZ001>003-009>011-017-272100-
NORTHWEST NORTH DAKOTA

CITY           SKY/WX    TMP DP  RH WIND       PRES   REMARKS
WILLISTON      CLOUDY    25  16  68 SW5       29.98F WCI  19
MINOT          PTSUNNY   24  16  71 W16       29.94S WCI  11
MINOT AFB      PTSUNNY   23  18  83 NW12      29.94S WCI  11
$$

NDZ018>021-031>035-040>046-272100-
SOUTHWEST NORTH DAKOTA

CITY           SKY/WX    TMP DP  RH WIND       PRES   REMARKS
BISMARCK       CLOUDY    29  19  66 SW8       29.99F
DICKINSON      PTSUNNY   28  17  63 W21       29.94F WCI  15
GARRISON         N/A     25  17  72 W20       29.94F WCI  11
HETTINGER ARPT MOSUNNY   28  16  60 W18       29.97F WCI  15
$$

NDZ004>008-012>016-024-026-027-054-272100-
NORTHEAST NORTH DAKOTA

CITY           SKY/WX    TMP DP  RH WIND       PRES   REMARKS
GRAND FORKS    CLOUDY    19  14  81 NW10      30.02F WCI   7
GRND FRKS AFB  CLOUDY    20  18  92 N5        30.02S WCI  14
DEVILS LAKE    CLOUDY    21  12  68 W7        29.95F WCI  13
$$

NDZ022-023-025-028>030-036>039-047>053-272100-
SOUTHEAST NORTH DAKOTA

CITY           SKY/WX    TMP DP  RH WIND       PRES   REMARKS
FARGO          SUNNY     23  15  71 SW9       30.04F WCI  13
JAMESTOWN      CLOUDY    22  16  78 W7        29.99F WCI  13
$$




USA.gov is the U.S. government's official web portal to all federal, state and local government web resources and services.